TimeCST,TemperatureF,Dew PointF,Humidity,Sea Level PressureIn,VisibilityMPH,Wind Direction,Wind SpeedMPH,Gust SpeedMPH,PrecipitationIn,Events,Conditions,WindDirDegrees,DateUTC
12:03 AM,55.4,53.6,94,30.24,0.8,Calm,Calm,-,N/A,,Mist,0,2012-12-03 06:03:00
12:16 AM,53.6,53.6,100,30.23,1.0,Calm,Calm,-,N/A,,Mist,0,2012-12-03 06:16:00
12:29 AM,50.0,48.2,94,30.23,0.5,Calm,Calm,-,N/A,Fog,Fog,0,2012-12-03 06:29:00
12:56 AM,50.0,48.0,93,30.19,0.8,Calm,Calm,-,N/A,,Mist,0,2012-12-03 06:56:00
1:56 AM,48.9,48.0,97,30.19,0.2,Calm,Calm,-,N/A,Fog,Fog,0,2012-12-03 07:56:00
2:56 AM,54.0,52.0,93,30.20,0.2,ENE,4.6,-,N/A,Fog,Fog,60,2012-12-03 08:56:00
3:34 AM,53.6,53.6,100,30.24,1.5,ENE,3.5,-,N/A,,Overcast,70,2012-12-03 09:34:00
3:56 AM,55.9,55.0,97,30.20,0.5,Calm,Calm,-,N/A,Fog,Fog,0,2012-12-03 09:56:00
4:56 AM,55.0,54.0,96,30.20,0.5,ENE,3.5,-,N/A,Fog,Fog,60,2012-12-03 10:56:00
5:56 AM,55.0,53.1,93,30.21,1.2,Calm,Calm,-,N/A,,Overcast,0,2012-12-03 11:56:00
6:17 AM,55.4,53.6,94,30.25,2.5,East,3.5,-,N/A,,Mostly Cloudy,80,2012-12-03 12:17:00
6:22 AM,55.4,53.6,94,30.25,5.0,Calm,Calm,-,N/A,,Mostly Cloudy,0,2012-12-03 12:22:00
6:30 AM,55.4,53.6,94,30.26,8.0,Calm,Calm,-,N/A,,Scattered Clouds,0,2012-12-03 12:30:00
6:56 AM,55.0,54.0,96,30.23,10.0,Calm,Calm,-,N/A,,Clear,0,2012-12-03 12:56:00
7:56 AM,60.1,57.0,90,30.25,10.0,ESE,4.6,-,N/A,,Partly Cloudy,120,2012-12-03 13:56:00
9:56 AM,71.1,57.9,63,30.25,10.0,SE,10.4,-,N/A,,Clear,130,2012-12-03 15:56:00
10:56 AM,75.0,57.0,53,30.23,10.0,SE,9.2,-,N/A,,Clear,130,2012-12-03 16:56:00
11:56 AM,77.0,55.0,47,30.20,10.0,South,8.1,17.3,N/A,,Clear,190,2012-12-03 17:56:00
12:56 PM,78.1,55.0,45,30.18,10.0,SSE,12.7,-,N/A,,Clear,160,2012-12-03 18:56:00
1:56 PM,77.0,55.0,47,30.17,10.0,SSW,11.5,-,N/A,,Clear,200,2012-12-03 19:56:00
2:56 PM,75.9,53.1,45,30.16,10.0,South,9.2,-,N/A,,Clear,170,2012-12-03 20:56:00
3:56 PM,73.9,53.1,48,30.16,10.0,South,6.9,-,N/A,,Clear,170,2012-12-03 21:56:00
4:56 PM,69.1,55.0,61,30.17,10.0,Calm,Calm,-,N/A,,Clear,0,2012-12-03 22:56:00
5:56 PM,66.9,57.9,73,30.18,10.0,South,3.5,-,N/A,,Clear,180,2012-12-03 23:56:00
6:23 PM,64.4,57.2,77,30.22,10.0,SSE,4.6,-,N/A,,Partly Cloudy,160,2012-12-04 00:23:00
6:56 PM,64.0,60.1,87,30.19,10.0,SSE,3.5,-,N/A,,Clear,150,2012-12-04 00:56:00
7:56 PM,63.0,61.0,93,30.19,9.0,SE,3.5,-,N/A,,Clear,140,2012-12-04 01:56:00
8:10 PM,62.6,60.8,94,30.23,1.8,Calm,Calm,-,N/A,,Clear,0,2012-12-04 02:10:00
8:12 PM,62.6,60.8,94,30.23,1.0,Calm,Calm,-,N/A,,Mist,0,2012-12-04 02:12:00
8:19 PM,62.6,60.8,94,30.23,0.5,Calm,Calm,-,N/A,Fog,Fog,0,2012-12-04 02:19:00
8:30 PM,64.4,62.6,94,30.23,1.2,Calm,Calm,-,N/A,,Partly Cloudy,0,2012-12-04 02:30:00
8:33 PM,62.6,62.6,100,30.23,3.0,Calm,Calm,-,N/A,,Partly Cloudy,0,2012-12-04 02:33:00
8:37 PM,62.6,62.6,100,30.23,1.5,Calm,Calm,-,N/A,,Scattered Clouds,0,2012-12-04 02:37:00
8:40 PM,62.6,62.6,100,30.23,0.8,Calm,Calm,-,N/A,,Mist,0,2012-12-04 02:40:00
8:49 PM,64.4,62.6,94,30.23,1.2,Calm,Calm,-,N/A,,Scattered Clouds,0,2012-12-04 02:49:00
8:52 PM,64.4,62.6,94,30.23,4.0,Calm,Calm,-,N/A,,Partly Cloudy,0,2012-12-04 02:52:00
8:56 PM,64.0,62.1,93,30.20,10.0,Calm,Calm,-,N/A,,Partly Cloudy,0,2012-12-04 02:56:00
9:28 PM,60.8,60.8,100,30.23,1.8,Calm,Calm,-,N/A,,Clear,0,2012-12-04 03:28:00
9:38 PM,60.8,59.0,94,30.23,0.8,Calm,Calm,-,N/A,,Clear,0,2012-12-04 03:38:00
9:56 PM,60.1,59.0,96,30.19,0.5,SE,3.5,-,N/A,Fog,Fog,130,2012-12-04 03:56:00
10:08 PM,60.8,59.0,94,30.24,2.0,ESE,4.6,-,N/A,,Clear,110,2012-12-04 04:08:00
10:15 PM,60.8,57.2,88,30.23,10.0,ESE,4.6,-,N/A,,Clear,110,2012-12-04 04:15:00
10:35 PM,57.2,57.2,100,30.23,2.5,ESE,4.6,-,N/A,,Clear,120,2012-12-04 04:35:00
10:43 PM,59.0,57.2,94,30.23,6.0,ESE,4.6,-,N/A,,Clear,120,2012-12-04 04:43:00
10:56 PM,59.0,57.9,96,30.18,4.0,SE,5.8,-,N/A,,Clear,130,2012-12-04 04:56:00
11:56 PM,59.0,57.0,93,30.18,10.0,SE,5.8,-,N/A,,Clear,130,2012-12-04 05:56:00